timestamp,surface_pressure_avg,surface_temp_avg,battery_voltage,lat,long
2019-05-15 00:00:00+00:00,227.4914,2.6,13.13,47.84626,-54.09684
2019-05-15 00:10:00+00:00,221.2081,2.63,12.97,47.84626,-54.09684
2019-05-15 00:20:00+00:00,216.7931,2.64,13.05,47.84626,-54.09684
2019-05-15 00:30:00+00:00,214.1781,2.64,12.97,47.84626,-54.09684
2019-05-15 00:40:00+00:00,208.0898,2.62,13.05,47.84626,-54.09684
2019-05-15 00:50:00+00:00,204.5714,2.68,13.05,47.84626,-54.09684
2019-05-15 01:00:00+00:00,204.8581,2.7,12.97,47.84626,-54.09684
2019-05-15 01:10:00+00:00,211.6198,2.7,12.81,47.84626,-54.09684
2019-05-15 01:20:00+00:00,210.3148,2.7,12.97,47.84626,-54.09684
2019-05-15 01:30:00+00:00,197.9097,2.7,12.97,47.84626,-54.09684
2019-05-15 01:40:00+00:00,196.5681,2.7,12.97,47.84626,-54.09684
2019-05-15 01:50:00+00:00,204.1881,2.7,12.97,47.84626,-54.09684
2019-05-15 02:00:00+00:00,200.7965,2.73,12.89,47.84626,-54.09684
2019-05-15 02:10:00+00:00,196.9632,2.8,12.81,47.84626,-54.09684
2019-05-15 02:20:00+00:00,202.6198,2.8,12.89,47.84626,-54.09684
2019-05-15 02:30:00+00:00,205.2715,2.8,12.89,47.84626,-54.09684
2019-05-15 02:40:00+00:00,202.0681,2.79,12.97,47.84626,-54.09684
2019-05-15 02:50:00+00:00,200.6798,2.8,12.97,47.84626,-54.09684
2019-05-15 03:00:00+00:00,202.7047,2.8,12.89,47.84626,-54.09684
2019-05-15 03:10:00+00:00,204.6631,2.8,12.81,47.84626,-54.09684
2019-05-15 03:20:00+00:00,202.7347,2.8,12.89,47.84626,-54.09684
2019-05-15 03:30:00+00:00,204.6748,2.85,12.89,47.84626,-54.09684
2019-05-15 03:40:00+00:00,203.9514,2.9,12.89,47.84626,-54.09684
2019-05-15 03:50:00+00:00,204.8731,2.9,12.89,47.84626,-54.09684
2019-05-15 04:00:00+00:00,212.7247,2.9,12.81,47.84626,-54.09684
2019-05-15 04:10:00+00:00,219.7615,2.9,12.73,47.84626,-54.09684
2019-05-15 04:20:00+00:00,222.4314,2.9,12.81,47.84626,-54.09684
2019-05-15 04:30:00+00:00,220.5348,2.9,12.89,47.84626,-54.09684
2019-05-15 04:40:00+00:00,227.5265,2.9,12.89,47.84626,-54.09684
2019-05-15 04:50:00+00:00,233.8432,2.9,12.89,47.84626,-54.09684
2019-05-15 05:00:00+00:00,235.8731,2.9,12.81,47.84626,-54.09684
2019-05-15 05:10:00+00:00,240.3831,2.9,12.73,47.84626,-54.09684
2019-05-15 05:20:00+00:00,249.4881,2.9,12.81,47.84626,-54.09684
2019-05-15 05:30:00+00:00,259.6014,2.87,12.81,47.84626,-54.09684
2019-05-15 05:40:00+00:00,263.9947,2.89,12.89,47.84626,-54.09684
2019-05-15 05:50:00+00:00,266.4449,2.9,12.89,47.84626,-54.09684
2019-05-15 06:00:00+00:00,274.1697,2.9,12.81,47.84626,-54.09684
2019-05-15 06:10:00+00:00,286.2281,2.9,12.73,47.84626,-54.09684
2019-05-15 06:20:00+00:00,290.128,2.9,12.81,47.84626,-54.09684
2019-05-15 06:30:00+00:00,292.3014,2.93,12.81,47.84626,-54.09684
2019-05-15 06:40:00+00:00,301.5431,2.95,12.81,47.84626,-54.09684
2019-05-15 06:50:00+00:00,311.8579,2.96,12.81,47.84626,-54.09684
2019-05-15 07:00:00+00:00,311.3214,2.98,12.73,47.84626,-54.09684
2019-05-15 07:10:00+00:00,314.7697,2.99,12.65,47.84626,-54.09684
2019-05-15 07:20:00+00:00,328.328,2.9,12.73,47.84626,-54.09684
2019-05-15 07:30:00+00:00,338.9363,2.9,12.73,47.84626,-54.09684
2019-05-15 07:40:00+00:00,335.0662,2.9,12.81,47.84626,-54.09684
2019-05-15 07:50:00+00:00,332.9329,2.9,12.81,47.84626,-54.09684
2019-05-15 08:00:00+00:00,344.4547,2.81,12.73,47.84626,-54.09684
2019-05-15 08:10:00+00:00,348.1646,2.8,12.65,47.84626,-54.09684
2019-05-15 08:20:00+00:00,344.3196,2.8,12.73,47.84626,-54.09684
2019-05-15 08:30:00+00:00,345.648,2.8,12.73,47.84626,-54.09684
2019-05-15 08:40:00+00:00,353.4462,2.8,12.81,47.84626,-54.09684
2019-05-15 08:50:00+00:00,354.3929,2.8,12.81,47.84626,-54.09684
2019-05-15 09:00:00+00:00,346.2247,2.83,12.73,47.84626,-54.09684
2019-05-15 09:10:00+00:00,346.7062,2.83,12.65,47.84626,-54.09684
2019-05-15 09:20:00+00:00,349.4413,2.8,12.81,47.84626,-54.09684
2019-05-15 09:30:00+00:00,344.9912,2.8,12.81,47.84626,-54.09684
2019-05-15 09:40:00+00:00,338.7564,2.81,12.89,47.84626,-54.09684
2019-05-15 09:50:00+00:00,334.4881,2.8,13.05,47.84626,-54.09684
2019-05-15 10:00:00+00:00,332.4914,2.8,13.05,47.84626,-54.09684
2019-05-15 10:10:00+00:00,326.803,2.8,13.05,47.84626,-54.09684
2019-05-15 10:20:00+00:00,320.868,2.85,13.29,47.84626,-54.09684
2019-05-15 10:30:00+00:00,318.843,2.87,13.44,47.84626,-54.09684
2019-05-15 10:40:00+00:00,314.1547,2.88,13.68,47.84626,-54.09684
2019-05-15 10:50:00+00:00,307.4047,2.9,13.84,47.84626,-54.09684
2019-05-15 11:00:00+00:00,299.733,2.9,13.84,47.84626,-54.09684
2019-05-15 11:10:00+00:00,295.2446,2.9,13.68,47.84626,-54.09684
2019-05-15 11:20:00+00:00,291.8731,2.93,13.76,47.84626,-54.09684
2019-05-15 11:30:00+00:00,286.7197,2.97,13.76,47.84626,-54.09684
2019-05-15 11:40:00+00:00,280.078,3.04,13.76,47.84626,-54.09684
2019-05-15 11:50:00+00:00,271.8781,3.2,13.84,47.84626,-54.09684
2019-05-15 12:00:00+00:00,266.8264,3.25,13.84,47.84626,-54.09684
2019-05-15 12:10:00+00:00,258.4881,3.3,13.76,47.84626,-54.09684
2019-05-15 12:20:00+00:00,250.9598,3.34,13.84,47.84626,-54.09684
2019-05-15 12:30:00+00:00,244.563,3.3,13.84,47.84626,-54.09684
2019-05-15 12:40:00+00:00,238.6198,3.3,13.92,47.84626,-54.09684
2019-05-15 12:50:00+00:00,232.5464,3.2,13.92,47.84626,-54.09684
2019-05-15 13:00:00+00:00,227.0815,3.2,13.84,47.84626,-54.09684
2019-05-15 13:10:00+00:00,222.4747,3.23,13.76,47.84626,-54.09684
2019-05-15 13:20:00+00:00,218.3698,3.21,13.84,47.84626,-54.09684
2019-05-15 13:30:00+00:00,216.1231,3.2,13.84,47.84626,-54.09684
2019-05-15 13:40:00+00:00,213.4531,3.22,13.92,47.84626,-54.09684
2019-05-15 13:50:00+00:00,211.4148,3.21,13.92,47.84626,-54.09684
2019-05-15 14:00:00+00:00,207.2564,3.2,13.84,47.84626,-54.09684
2019-05-15 14:10:00+00:00,202.5981,3.24,13.76,47.84626,-54.09684
2019-05-15 14:20:00+00:00,202.1831,3.28,13.84,47.84626,-54.09684
2019-05-15 14:30:00+00:00,203.9765,3.3,13.84,47.84626,-54.09684
2019-05-15 14:40:00+00:00,200.7598,3.32,13.92,47.84626,-54.09684
2019-05-15 14:50:00+00:00,198.9581,3.4,13.92,47.84626,-54.09684
2019-05-15 15:00:00+00:00,202.5215,3.4,13.84,47.84626,-54.09684
2019-05-15 15:20:00+00:00,197.6664,3.49,13.6,47.84626,-54.09684
2019-05-15 15:30:00+00:00,198.5431,3.58,13.68,47.84626,-54.09684
2019-05-15 15:40:00+00:00,204.8231,3.5,13.68,47.84626,-54.09684
2019-05-15 15:50:00+00:00,208.7448,3.5,13.68,47.84626,-54.09684
2019-05-15 16:00:00+00:00,208.0281,3.53,13.68,47.84626,-54.09684
2019-05-15 16:10:00+00:00,208.4314,3.6,13.6,47.84626,-54.09684
2019-05-15 16:20:00+00:00,214.7265,3.6,13.68,47.84626,-54.09684
2019-05-15 16:30:00+00:00,221.7214,3.6,13.68,47.84626,-54.09684
2019-05-15 16:40:00+00:00,226.1465,3.64,13.84,47.84626,-54.09684
2019-05-15 16:50:00+00:00,231.1648,3.69,14.0,47.84626,-54.09684
2019-05-15 17:00:00+00:00,236.9098,3.63,13.92,47.84626,-54.09684
2019-05-15 17:10:00+00:00,240.9897,3.65,13.84,47.84626,-54.09684
2019-05-15 17:20:00+00:00,242.3931,3.69,13.92,47.84626,-54.09684
2019-05-15 17:30:00+00:00,246.6447,3.7,14.0,47.84626,-54.09684
2019-05-15 17:40:00+00:00,255.5981,3.5,14.0,47.84626,-54.09684
2019-05-15 17:50:00+00:00,263.4397,3.4,14.08,47.84626,-54.09684
2019-05-15 18:00:00+00:00,270.3031,3.4,14.0,47.84626,-54.09684
2019-05-15 18:10:00+00:00,282.3848,3.4,14.0,47.84626,-54.09684
2019-05-15 18:20:00+00:00,297.6597,3.4,14.08,47.84626,-54.09684
2019-05-15 18:30:00+00:00,306.5963,3.4,14.16,47.84626,-54.09684
2019-05-15 18:40:00+00:00,309.0364,3.42,14.24,47.84626,-54.09684
2019-05-15 18:50:00+00:00,316.538,3.4,14.24,47.84626,-54.09684
2019-05-15 19:00:00+00:00,325.7346,3.4,14.16,47.84626,-54.09684
2019-05-15 19:10:00+00:00,329.9779,3.4,14.0,47.84626,-54.09684
2019-05-15 19:20:00+00:00,330.9312,3.4,14.08,47.84626,-54.09684
2019-05-15 19:30:00+00:00,335.0363,3.4,14.16,47.84626,-54.09684
2019-05-15 19:40:00+00:00,338.4346,3.4,14.16,47.84626,-54.09684
2019-05-15 19:50:00+00:00,341.9263,3.4,14.16,47.84626,-54.09684
2019-05-15 20:00:00+00:00,346.9846,3.38,14.0,47.84626,-54.09684
2019-05-15 20:10:00+00:00,351.4163,3.4,13.92,47.84626,-54.09684
2019-05-15 20:20:00+00:00,351.6696,3.4,13.92,47.84626,-54.09684
2019-05-15 20:30:00+00:00,356.378,3.4,13.84,47.84626,-54.09684
2019-05-15 20:40:00+00:00,358.8264,3.4,13.84,47.84626,-54.09684
2019-05-15 20:50:00+00:00,359.6846,3.39,13.84,47.84626,-54.09684
2019-05-15 21:00:00+00:00,358.3279,3.34,13.68,47.84626,-54.09684
2019-05-15 21:10:00+00:00,354.7112,3.33,13.6,47.84626,-54.09684
2019-05-15 21:20:00+00:00,352.5212,3.36,13.6,47.84626,-54.09684
2019-05-15 21:30:00+00:00,350.7313,3.37,13.53,47.84626,-54.09684
2019-05-15 21:40:00+00:00,348.973,3.36,13.53,47.84626,-54.09684
2019-05-15 21:50:00+00:00,346.9763,3.31,13.53,47.84626,-54.09684
2019-05-15 22:00:00+00:00,347.4497,3.3,13.37,47.84626,-54.09684
2019-05-15 22:10:00+00:00,347.3413,3.3,13.21,47.84626,-54.09684
2019-05-15 22:20:00+00:00,346.3563,3.3,13.21,47.84626,-54.09684
2019-05-15 22:30:00+00:00,344.6496,3.3,13.21,47.84626,-54.09684
2019-05-15 22:40:00+00:00,339.928,3.3,13.21,47.84626,-54.09684
2019-05-15 22:50:00+00:00,326.1913,3.3,13.13,47.84626,-54.09684
2019-05-15 23:00:00+00:00,319.9547,3.39,13.05,47.84626,-54.09684
2019-05-15 23:10:00+00:00,314.7814,3.4,12.89,47.84626,-54.09684
2019-05-15 23:20:00+00:00,311.1146,3.4,12.97,47.84626,-54.09684
2019-05-15 23:30:00+00:00,300.3097,3.41,12.97,47.84626,-54.09684
2019-05-15 23:40:00+00:00,295.6414,3.4,12.97,47.84626,-54.09684
2019-05-15 23:50:00+00:00,288.8497,3.38,12.97,47.84626,-54.09684
